This demonstration page uses our WeatherBlox Daily Observations layout. Learn more.

Left ArrowRight Arrow

Hourly Observations for December 20, 2020

Temp ( °F °C ) Dew Point ( °F °C ) Humidity (%) Winds ( mph kmh ) Pressure ( in mb ) Visibility ( mi km ) Precip ( " mm )
12:53 am 00:53 Cloudy with Light Rain 40 4.4 40 4.4 100 100 VRB 5 7 30.05 1018 8 13 0.01 0.25
1:53 am 01:53 Cloudy with Light Rain 39 4 N/A N/A VRB 3 6 30.04 1017 10 16 0.01 0.25
2:53 am 02:53 Cloudy 39 4 N/A N/A Calm 30.04 1017 8 13 0.00 0.00
3:13 am 03:13 Cloudy 39 4 N/A N/A SSW 3 6 30.06 1018 8 13 0.00 0.00
3:53 am 03:53 Cloudy with Mist and Fog 40 4.4 39 3.9 97 97 VRB 3 6 30.04 1017 4 6 0.00 0.00
4:53 am 04:53 Cloudy with Mist and Fog 39 3.9 39 3.9 100 100 VRB 3 6 30.04 1017 3 5 0.00 0.00
5:53 am 05:53 Cloudy with Haze 39 4 N/A N/A SW 3 6 30.04 1017 5 8 0.00 0.00
6:53 am 06:53 Cloudy 39 4 N/A N/A Calm 30.02 1017 10 16 0.00 0.00
7:53 am 07:53 Cloudy 40 4.4 39 3.9 97 97 SSW 5 7 30.01 1016 9 14 0.00 0.00
8:53 am 08:53 Cloudy 40 4.4 40 4.4 100 100 SW 3 6 30.01 1016 9 14 0.00 0.00
9:53 am 09:53 Cloudy 41 5 40 4.4 96 96 WSW 6 9 30.01 1016 10 16 0.00 0.00
10:43 am 10:43 Cloudy 42 5.6 40 4.4 92 92 WSW 7 11 30.02 1017 10 16 0.00 0.00
10:53 am 10:53 Cloudy 42 5.6 40 4.4 92 92 WSW 10 17 30.01 1016 10 16 0.00 0.00
11:53 am 11:53 Cloudy 42 5.6 39 3.9 89 89 WSW 9 15 30.00 1016 10 16 0.00 0.00
12:08 pm 12:08 Cloudy 42 5.6 39 3.9 89 89 WSW 6 9 30.00 1016 10 16 0.00 0.00
12:34 pm 12:34 Cloudy 42 5.6 38 3.3 85 85 SW 7 11 29.99 1016 10 16 0.00 0.00
12:53 pm 12:53 Cloudy 43 6.1 38 3.3 82 82 SW 7 11 29.97 1015 10 16 0.00 0.00
1:53 pm 13:53 Mostly Cloudy 45 7.2 36 2.2 71 71 VRB 5 7 29.94 1014 10 16 0.00 0.00
2:19 pm 14:19 Cloudy 44 6.7 37 2.8 76 76 WNW 12 19 29.95 1014 10 16 0.00 0.00
2:50 pm 14:50 Mostly Cloudy 45 7 37 3 76 76 W 7 11 29.95 1014 10 16 0.00 0.00
2:53 pm 14:53 Mostly Cloudy 44 6.7 36 2.2 73 73 W 7 11 29.94 1014 10 16 0.00 0.00
3:53 pm 15:53 Sunny 45 7.2 34 1.1 66 66 VRB 5 7 29.93 1014 10 16 0.00 0.00
4:53 pm 16:53 Sunny 41 5 33 0.6 73 73 W 3 6 29.93 1014 10 16 0.00 0.00
5:53 pm 17:53 Clear 34 1.1 30 -1.1 85 85 Calm 29.94 1014 10 16 0.00 0.00
6:53 pm 18:53 Clear 31 -0.6 28 -2.2 89 89 Calm 29.94 1014 9 14 0.00 0.00
7:53 pm 19:53 Clear with Mist and Fog 28 -2.2 26 -3.3 92 92 Calm 29.93 1014 6 10 0.00 0.00
8:53 pm 20:53 Clear with Mist and Fog 28 -2.2 26 -3.3 92 92 Calm 29.94 1014 6 10 0.00 0.00
9:53 pm 21:53 Clear with Mist and Fog 27 -2.8 25 -3.9 92 92 E 3 6 29.93 1014 5 8 0.00 0.00
10:53 pm 22:53 Mostly Clear with Mist and Fog 28 -2.2 26 -3.3 92 92 Calm 29.94 1014 5 8 0.00 0.00
11:53 pm 23:53 Cloudy with Mist and Fog 31 -0.6 30 -1.1 96 96 ESE 3 6 29.94 1014 6 10 0.00 0.00

Powered by AerisWeather